Weather History for Defiance, OH

Change the Weather History Date:

Friday, February 28, 2014

  Actual Average Record
Temperature  
Mean Temperature 11 °F -  
Max Temperature 26 °F 39 °F 65 °F (1976)
Min Temperature -4 °F 21 °F -10 °F (1963)
Degree Days  
Heating Degree Days 54    
Moisture  
Dew Point 0 °F    
Average Humidity 58    
Maximum Humidity 79    
Minimum Humidity 39    
Precipitation  
Precipitation 0.00 in - - ()
Sea Level Pressure  
Sea Level Pressure 30.25 in    
Wind  
Wind Speed 3 mph (ESE)    
Max Wind Speed 12 mph    
Max Gust Speed -    
Visibility 10 miles    
Events      
Averages and records for this station are not official NWS values.
T = Trace of Precipitation, MM = Missing Value Source: NWS Daily Summary

Daily Weather History Graph

Daily Weather History Graph

Search for Another Location

Airport:

Trip Planner

Search our weather history database for the weather conditions in past years. The results will help you decide how hot, cold, wet, or windy it might be!

Date:

Astronomy

Feb. 28, 2014 Rise Set
Actual Time 7:13 AM EST 6:27 PM EST
Civil Twilight 6:45 AM EST 6:55 PM EST
Nautical Twilight 6:14 AM EST 7:27 PM EST
Astronomical Twilight 5:42 AM EST 7:59 PM EST
Moon 6:27 AM EST (2/28) 6:03 PM EST (2/28)
Length of Visible Light 12h 09m
Length of Day
11h 13m
Waning Crescent, 1% of the Moon is Illuminated
Feb 28
Waning Crescent
Mar 1
New
Mar 8
First Quarter
Mar 16
Full
Mar 23
Last Quarter

Hourly Weather History & Observations

Time (EST) Temp. Windchill Dew Point Humidity Pressure Visibility Wind Dir Wind Speed Gust Speed Precip Events Conditions
12:53 AM 1.0 °F - -7.1 °F 69% 30.27 in 10.0 mi Calm Calm - N/A   Clear
1:53 AM -0.0 °F - -8.0 °F 69% 30.29 in 10.0 mi Calm Calm - N/A   Clear
2:53 AM -2.0 °F -10.1 °F -9.0 °F 72% 30.28 in 10.0 mi NNE 3.5 mph - N/A   Clear
3:53 AM -0.9 °F - -7.1 °F 75% 30.29 in 10.0 mi Calm Calm - N/A   Clear
4:53 AM -2.9 °F - -9.0 °F 75% 30.30 in 10.0 mi Calm Calm - N/A   Clear
5:53 AM -4.0 °F - -9.0 °F 79% 30.32 in 10.0 mi Calm Calm - N/A   Clear
6:53 AM -2.0 °F -10.1 °F -9.0 °F 72% 30.32 in 10.0 mi ENE 3.5 mph - N/A   Clear
7:53 AM 1.0 °F -6.7 °F -6.0 °F 72% 30.34 in 10.0 mi East 3.5 mph - N/A   Clear
8:53 AM 7.0 °F -4.5 °F -2.0 °F 67% 30.34 in 10.0 mi ESE 6.9 mph - N/A   Clear
9:53 AM 10.0 °F -2.9 °F -4.0 °F 53% 30.35 in 10.0 mi SE 9.2 mph - N/A   Clear
10:53 AM 12.9 °F 2.6 °F -2.9 °F 49% 30.34 in 10.0 mi Variable 6.9 mph - N/A   Clear
11:53 AM 15.1 °F 3.3 °F -2.0 °F 47% 30.34 in 10.0 mi South 9.2 mph - N/A   Clear
12:53 PM 18.0 °F 9.8 °F -0.0 °F 45% 30.30 in 10.0 mi Variable 5.8 mph - N/A   Clear
1:53 PM 19.0 °F 9.0 °F 1.0 °F 46% 30.27 in 10.0 mi ESE 8.1 mph - N/A   Clear
2:53 PM 21.0 °F 12.4 °F -0.0 °F 40% 30.25 in 10.0 mi SSE 6.9 mph - N/A   Clear
3:53 PM 23.0 °F 13.1 °F 3.0 °F 42% 30.22 in 10.0 mi SE 9.2 mph - N/A   Mostly Cloudy
4:53 PM 25.0 °F 14.2 °F 3.0 °F 39% 30.19 in 10.0 mi SE 11.5 mph - N/A   Partly Cloudy
5:53 PM 26.1 °F 19.4 °F 3.9 °F 39% 30.16 in 10.0 mi SE 5.8 mph - N/A   Clear
6:53 PM 23.0 °F 17.0 °F 8.1 °F 53% 30.15 in 10.0 mi East 4.6 mph - N/A   Clear
7:53 PM 21.9 °F 17.2 °F 9.0 °F 58% 30.16 in 10.0 mi East 3.5 mph - N/A   Clear
8:53 PM 21.9 °F 15.7 °F 10.0 °F 60% 30.14 in 10.0 mi East 4.6 mph - N/A   Clear
9:53 PM 23.0 °F 15.8 °F 10.9 °F 60% 30.14 in 10.0 mi ESE 5.8 mph - N/A   Clear
10:53 PM 24.1 °F 19.7 °F 10.0 °F 55% 30.13 in 10.0 mi ESE 3.5 mph - N/A   Clear
11:53 PM 21.0 °F - 10.0 °F 63% 30.12 in 10.0 mi Calm Calm - N/A   Clear